Location: Walnut Street Observatory
(41.0583°N, 76.2295°W)
Time: 02:54:57
(UTC-05:00)

Daily predictions for brighter satellites

Satellite Brightness Start Highest point End
(mag) Time Altitude Azimuth Time Altitude Azimuth Time Altitude Azimuth
Cosmos 2237 Rocket 4.2 03:57:43 18° NNE 03:57:43 18° NNE 03:59:08 10° NNE
DELTA 2 R/B (1) 4.3 04:07:47 50° ESE 04:07:47 50° ESE 04:11:54 10° E
Atlas Centaur 2 3.7 04:16:09 36° SSW 04:16:49 36° S 04:24:20 10° ESE
Lacrosse 5 rocket 2.5 04:23:56 47° E 04:23:56 47° E 04:27:37 10° NE
SL-08 R/B 4.5 04:19:44 26° N 04:23:37 83° E 04:30:01 10° S
SL-16 R/B 2.1 04:29:35 79° N 04:29:35 79° N 04:34:57 10° NNE
Cosmos 2123 Rocket 3.9 04:26:13 10° S 04:32:27 89° E 04:38:46 10° N
Cosmos 1725 Rocket 3.9 04:27:51 10° N 04:34:05 85° E 04:40:16 10° S
DEBRIS 4.4 04:38:24 27° E 04:38:24 27° E 04:39:33 10° E
CZ-4B R/B 3.2 04:45:25 10° N 04:51:03 66° WNW 04:56:37 10° SSW
Meteor 1-26 Rocket 4.0 04:48:03 25° NNW 04:51:28 82° W 04:57:07 10° S
USA 229 DEB 3.7 04:49:12 35° NW 04:52:34 82° WSW 04:59:56 10° SSE
Cosmos 1503 Rocket 3.8 04:51:38 58° NW 04:52:37 78° WSW 04:57:45 10° SSE
USA 229 3.7 04:49:15 35° NW 04:52:40 83° WSW 05:00:01 10° SSE
CZ-2C R/B 3.5 04:48:38 10° SSE 04:53:09 88° ENE 04:54:19 49° NNW
Cosmos 2369 Rocket 3.9 04:49:45 10° N 04:54:35 29° NE 04:59:23 10° ESE
Cosmos 2297 3.7 04:54:23 54° W 04:54:47 56° WSW 05:00:20 10° S
COSMO-SKYMED 1 3.6 04:51:29 10° SE 04:55:37 45° ENE 04:59:46 10° N
Cosmos 2016 Rocket 4.3 04:56:33 42° WSW 04:56:33 42° WSW 05:01:22 10° SSW
Cosmos 2084 Rocket 3.1 04:57:56 79° ENE 04:57:56 79° ENE 05:01:47 10° SE
Cosmos 1408 3.7 04:55:56 10° SSE 04:59:29 44° E 05:03:04 10° NNE
USA 116 4.4 04:56:09 10° SSE 05:01:25 85° WSW 05:06:50 10° NNW
IRS-1C Rocket 4.0 04:56:37 10° N 05:01:48 60° WNW 05:06:56 10° SSW
SJ-6F 4.4 04:58:24 10° N 05:07:04 - SSW 05:02:04 63° NNW
Meteor 2-12 Rocket 4.3 04:56:47 10° NNW 05:02:45 62° W 05:08:40 10° S
SL-8 R/B 4.3 05:01:31 27° SSW 05:03:51 54° SE 05:08:29 10° ENE
Cosmos 968 Rocket 4.1 04:59:38 11° N 05:04:36 55° ENE 05:09:45 10° SE
IDEFIX/ARIANE 42P 3.7 05:02:33 10° NNE 05:07:31 45° E 05:12:28 10° S
PSLV R/B 3.4 05:11:52 59° SSE 05:11:52 59° SSE 05:14:58 10° E
Cosmos 1862 Rocket 4.1 05:12:48 39° WSW 05:12:48 39° WSW 05:16:11 10° SSW
MTI 3.5 05:13:20 10° S 05:16:31 77° WSW 05:16:33 77° W
Meteor 1-28 Rocket 3.5 05:14:33 10° S 05:17:47 44° WSW 05:17:47 44° WSW
SKYMED 3 4.4 05:21:12 10° SSE 05:25:32 84° WSW 05:29:53 10° NNW
EO 1 Del DPAF 3.1 05:22:29 10° S 05:26:19 77° WSW 05:29:32 14° NNW
Landsat 4 4.1 05:25:11 10° S 05:28:39 38° W 05:28:54 38° W
Meteor 2-6 Rocket 4.5 05:24:36 10° N 05:30:29 77° E 05:36:26 10° SSE
Cosmos 1943 Rocket 3.6 05:27:56 10° N 05:33:10 37° ENE 05:38:22 10° SE
Okean 1-7 3.1 05:28:51 10° N 05:33:16 80° E 05:37:36 10° S
USA 32 4.3 05:32:22 10° SSW 05:37:18 43° W 05:42:17 10° N
Cosmos 1943 3.7 05:32:47 10° S 05:38:23 63° ESE 05:44:01 10° NNE
Cosmos 2237 Rocket 4.1 05:39:35 12° NNW 05:39:35 12° NNW 05:40:57 10° NNW
Hubble Space Telescope 3.2 05:36:27 10° SW 05:38:37 14° S 05:40:47 10° SSE
SKYMED 2 3.7 05:39:24 10° S 05:43:37 52° W 05:47:52 10° NNW
Cosmos 2233 Rocket 4.3 05:38:46 10° NNW 05:44:29 42° W 05:50:11 10° SSW
CZ-4 R/B 4.4 05:42:27 10° NE 05:45:16 19° E 05:48:07 10° SE
ATLAS 5 CENTAUR R/B 2.1 05:43:23 10° SSW 05:47:53 66° ESE 05:52:48 10° NE
Cosmos 1825 2.5 05:47:21 10° SSW 05:50:55 41° WNW 05:54:32 10° N
Abrixas rocket 3.8 05:49:49 17° NNW 05:51:18 23° N 05:53:56 10° ENE
DMSP B5D1-3 4.5 05:46:34 10° S 05:51:41 74° WSW 05:56:50 10° NNW
DELTA 2 R/B (1) 4.0 05:48:34 18° W 05:52:35 54° SSW 05:58:00 10° ESE
BREEZE-M DEB (TANK) 3.6 05:50:45 19° WNW 05:53:04 45° N 05:57:07 10° E
Meteor 1-27 Rocket 4.0 05:50:01 10° N 05:55:53 79° E 06:01:37 10° SSE
Cosmos 2221 Rocket 3.6 05:54:49 10° NNW 05:59:13 58° W 06:03:37 10° S
Intercosmos 25 3.8 05:57:02 10° NNW 06:00:10 37° W 06:04:16 10° SSW
Okean-O 3.2 05:56:59 10° N 06:00:58 34° WNW 06:04:58 10° SW
Lacrosse 5 rocket 2.6 05:59:41 16° W 06:02:35 28° NNW 06:06:37 10° NNE
Meteor 1-10 Rocket 4.5 05:57:32 10° NNW 06:03:19 54° W 06:09:04 10° S
SJ-12 3.9 06:00:51 10° NNE 06:04:59 87° WNW 06:09:04 10° SSW
Atlas Centaur 2 4.5 05:59:30 10° WSW 06:05:48 25° SSW 06:12:21 10° SSE
Genesis I 4.1 06:02:52 10° SSW 06:06:38 53° ESE 06:10:29 10° NE
Cosmos 1484 Rocket 3.7 06:04:43 10° NNE 06:08:41 54° E 06:12:37 10° S
Cosmos 1513 Rocket 4.4 06:06:08 10° NNW 06:12:12 69° W 06:18:10 10° S
Cosmos 1441 Rocket 3.3 06:09:14 10° NNW 06:12:55 52° W 06:16:33 10° S
Cosmos 1606 3.9 06:10:42 10° NW 06:13:45 23° W 06:16:47 10° SW
SL-16 R/B 3.8 06:11:34 11° WNW 06:14:12 15° NW 06:17:23 10° NNW
Cosmos 1869 Rocket 4.3 06:12:21 10° SW 06:16:12 30° WNW 06:20:06 10° NNW
COSMOS 2441 4.4 06:12:42 10° N 06:17:36 69° WNW 06:22:26 10° SSW
Cosmos 1603 4.3 06:13:25 10° WSW 06:18:30 34° WNW 06:23:40 10° N
Cosmos 1777 Rocket 4.0 06:13:50 10° NNW 06:19:03 76° WSW 06:24:13 10° SSE
SMAP 3.5 06:19:04 10° NNE 06:23:43 71° ESE 06:28:21 10° S
Cosmos 1782 4.2 06:22:59 10° NW 06:25:45 18° W 06:28:29 10° SW
CSL-04 Debris 4.4 06:22:08 10° NNE 06:27:34 77° ESE 06:32:57 10° S
CZ-2C R/B 3.0 06:25:42 10° N 06:30:29 39° WNW 06:35:12 10° SW
ATLAS 2AS CENTAUR R/B 4.0 06:25:56 10° NNW 06:33:28 42° NE 06:40:30 10° ESE
